Okean 1 - Orbit

View from above orbital plane
View from above orbital plane
View from above satellite
View from above satellite

Ground track
Ground track

The orbit data is extracted from the following two-line orbital elements,

1 19274U 88056A   13170.81731027  .00002487  00000-0  20018-3 0   526
2 19274 082.5072 122.8408 0012085 207.4080 152.7172 14.99938705355824
Epoch (UTC): 19 June 2013 19:36:55
Eccentricity: 0.0012085
inclination: 82.5072°
perigee height: 558 km
apogee height: 575 km
right ascension of ascending node: 122.8408°
argument of perigee: 207.4080°
revolutions per day: 14.99938705
mean anomaly at epoch: 152.7172°
orbit number at epoch: 35582

The dashed part of the orbit path shows where the satellite is in the earth's shadow,  

Developed and maintained by Chris Peat, Heavens-Above GmbH. Please read the updated FAQ before sending e-mail. Imprint. DLR